Showing default

SIGI, 62632

Orbit data source: Space-Track

SIGI, 62632 is a German payload satellite in SSO that was launched on Tue, 14 Jan 2025 UTC via an FALCON 9 launch vehicle from the Air Force Western Test Range (AFWTR). Payload-class satellites include a variety of spacecraft equipped with specific instruments for various scientific and technological missions. These include communications satellites like Starlink; space stations such as the ISS; scientific satellites like the Hubble; Earth observation satellites from companies like Planet Labs, Umbra, and HawkEye 360; GPS; miniature CubeSats for education and research; and military/defense satellites.

Loading next visibility...
Identifier
62632, 2025-009Z
Orbit
SSO
Last TLE update
9 hours ago
Origin
Manufacturer
REFLEX
Mission
Operational Commercial Communications
Bus & Motor
OMNIFLEX, Unknown motor
Mass
109 kg wet, 109 kg dry
Launch date (UTC)
2025-01-14 (4 months ago)
Launch vehicle
FALCON 9
Launch site
Air Force Western Test Range (AFWTR)
Object type
Payload
Rocket body
Debris
Shape & HBR
Box + 2 Pan, 3 m
Radar Cross Section
1.176 m², Medium (>0.1 m² and < 1m²)

Expand to show TLE details & history

TLE from 9 hours ago
0 SIGI
1 62632U 25009Z   25128.91669564  .00006002  00000-0  28603-3 0  9999
2 62632  97.4313 209.7192 0001949 295.4105  64.6928 15.19482788 17317
Epoch: 2025-05-08T22:00Z
Definitive object data (Epoch: 2025-05-08T22:00:02.503Z)
Latitude
-0°
Longitude
12.72845°
Altitude
509.918 km
Speed
7.609 km/s
True Right ascension
13h 58m 52s
True Declination
0° 00' 00"
Sunlit
Object was in full shadow at TLE epoch
Visualization TLE readout
Latitude
14.74707°
Longitude
-164.9611°
Altitude
510.602 km
Speed
7.609 km/s
Apparent Right ascension
02h 24m 22s
Apparent Declination
-11° 25' 18"
Sunlit
Object is in daylight
Visualization observer readout
Local Sidereal Time
14:46:31
Azimuth
11.276° NNE
Elevation
-61.087°
Doppler factor
1
Orbital elements
Apogee altitude
505.712 km
Perigee altitude
503.029 km
Semi-major axis
6,882.507 km
Eccentricity
0.0001949
Inclination
97.4313°
RAAN
209.7192°
Arg. of periapsis
295.4105°
True anomaly
64.71299°
Mean anomaly
64.6928°
Eccentric anomaly
64.7029°
Mean motion
3.80122 °/min
BSTAR
0.00028603
Orbital period
94.71 mins
Loading maneuver chart data...
Loading SW <> Apogee altitude chart data...
Loading historical data...
Loading historical data...
Loading historical data...
Loading historical data...
Loading historical data...
Loading historical data...
Loading historical data...

SIGI Visibility forecast

Observer location: undefined°, undefined°

Span
Click to sort rows by Start time (UTC) header in descending order
Start Az.
Max El. time (UTC)
Max El. Az.
Max El.
End time (UTC)
End Az.
5 mins2025-05-09 17:32:39.333Z45.519° ENE2025-05-09 17:34:39.333Z83.782° E22.584°2025-05-09 17:37:39.333Z147.807° SSE
5 mins2025-05-10 05:44:39.333Z193.627° SSW2025-05-10 05:46:39.333Z241.28° WSW35.058°2025-05-10 05:49:39.333Z330.176° NNW
|